Location: Bonneuil
(46.1010°N, 2.9693°E)
Time: 14:32:11
(UTC+00:00)

Meteor 2-10 Rocket - Pass Details

Date: 09 April 2020
Orbit: 734 x 884 km, 81.2° (Epoch: 27 May)

Event Time Altitude Azimuth Distance (km) Brightness Sun altitude
Exits shadow 20:33:48 36° 91° (E) 1,239 4.1 -20.5°
Maximum altitude 20:33:49 36° 91° (E) 1,239 4.1 -20.6°
Drops below altitude 10° 20:38:44 10° 26° (NNE) 2,413 6.2 -21.2°
Sets 20:41:20 0° 19° (NNE) 3,375 7.1 -21.6°
